This is the latest recevied weather packets stored in our database for station/object HP1COO-13. If no packets are shown the sender has not sent any weather packets the latest 10 day(s).
| Time | Temp. | Humidity | Pressure | Rain* | Wind** | Luminosity | Snow |
|---|---|---|---|---|---|---|---|
| 1787532885 | 27.78° C | 89% | 1007.8 hPa | 0 mm | - | - | - |
| 1787532252 | 27.78° C | 88% | 1007.6 hPa | 0 mm | - | - | - |
| 1787531619 | 27.78° C | 88% | 1007.5 hPa | 0 mm | - | - | - |
| 1787530986 | 28.33° C | 88% | 1007.2 hPa | 0 mm | - | - | - |
| 1787530352 | 28.33° C | 87% | 1007.1 hPa | 0 mm | - | - | - |
| 1787529719 | 28.33° C | 87% | 1007.1 hPa | 0 mm | - | - | - |
| 1787529086 | 28.33° C | 86% | 1006.8 hPa | 0 mm | - | - | - |
| 1787527820 | 28.89° C | 85% | 1006.7 hPa | 0 mm | - | - | - |
| 1787527187 | 28.89° C | 85% | 1006.7 hPa | 0 mm | - | - | - |
| 1787526554 | 29.44° C | 84% | 1006.4 hPa | 0 mm | - | - | - |
| 1787525921 | 30° C | 83% | 1006.3 hPa | 0 mm | - | - | - |
| 1787525288 | 30° C | 82% | 1006.2 hPa | 0 mm | - | - | - |
| 1787524655 | 30° C | 82% | 1006.1 hPa | 0 mm | - | - | - |
| 1787524022 | 30.56° C | 82% | 1006.1 hPa | 0 mm | - | - | - |
| 1787523390 | 30.56° C | 80% | 1006 hPa | 0 mm | - | - | - |
| 1787522756 | 30.56° C | 80% | 1005.9 hPa | 0 mm | - | - | - |
| 1787522123 | 30.56° C | 79% | 1005.9 hPa | 0 mm | - | - | - |
| 1787521490 | 30.56° C | 78% | 1006.1 hPa | 0 mm | - | - | - |
| 1787520857 | 31.11° C | 77% | 1006.2 hPa | 0 mm | - | - | - |
| 1787520224 | 31.11° C | 77% | 1006.1 hPa | 0 mm | - | - | - |
| 1787519591 | 31.11° C | 78% | 1006.1 hPa | 0 mm | - | - | - |
| 1787518958 | 31.11° C | 78% | 1005.9 hPa | 0 mm | - | - | - |
| 1787518326 | 30.56° C | 79% | 1006.1 hPa | 0 mm | - | - | - |
| 1787517059 | 31.11° C | 80% | 1006.1 hPa | 0.25 mm | - | - | - |
| 1787516426 | 30.56° C | 82% | 1006.3 hPa | 0.25 mm | - | - | - |
* Rain latest hour (hover to see other rain measurements)
** Current wind speed in m/s (hover to see current wind gust speed)